Year,Month,Day,Hour,Minute,Value (Times are PST for temperature in C)
2021,04,27,00,00,9.70
2021,04,27,00,01,9.70
2021,04,27,00,02,9.70
2021,04,27,00,03,9.70
2021,04,27,00,04,9.70
2021,04,27,00,05,9.70
2021,04,27,00,06,9.70
2021,04,27,00,07,9.70
2021,04,27,00,08,9.70
2021,04,27,00,09,9.70
2021,04,27,00,10,9.60
2021,04,27,00,11,9.60
2021,04,27,00,12,9.60
2021,04,27,00,13,9.50
2021,04,27,00,14,9.50
2021,04,27,00,15,9.50
2021,04,27,00,16,9.50
2021,04,27,00,17,9.50
2021,04,27,00,18,9.50
2021,04,27,00,19,9.40
2021,04,27,00,20,9.40
2021,04,27,00,21,9.30
2021,04,27,00,22,9.30
2021,04,27,00,23,9.20
2021,04,27,00,24,9.20
2021,04,27,00,25,9.20
2021,04,27,00,26,9.20
2021,04,27,00,27,9.20
2021,04,27,00,28,9.20
2021,04,27,00,29,9.10
2021,04,27,00,30,9.10
2021,04,27,00,31,9.10
2021,04,27,00,32,9.00
2021,04,27,00,33,9.00
2021,04,27,00,34,8.90
2021,04,27,00,35,8.90
2021,04,27,00,36,8.90
2021,04,27,00,37,8.90
2021,04,27,00,38,8.90
2021,04,27,00,39,9.00
2021,04,27,00,40,9.00
2021,04,27,00,41,9.10
2021,04,27,00,42,9.00
2021,04,27,00,43,9.00
2021,04,27,00,44,9.10
2021,04,27,00,45,9.10
2021,04,27,00,46,9.10
2021,04,27,00,47,9.10
2021,04,27,00,48,9.10
2021,04,27,00,49,9.10
2021,04,27,00,50,9.10
2021,04,27,00,51,9.10
2021,04,27,00,52,9.20
2021,04,27,00,53,9.20
2021,04,27,00,54,9.20
2021,04,27,00,55,9.20
2021,04,27,00,56,9.20
2021,04,27,00,57,9.30
2021,04,27,00,58,9.30
2021,04,27,00,59,9.30
2021,04,27,01,00,9.30
2021,04,27,01,01,9.30
2021,04,27,01,02,9.20
2021,04,27,01,03,9.20
2021,04,27,01,04,9.30
2021,04,27,01,05,9.30
2021,04,27,01,06,9.30
2021,04,27,01,07,9.30
2021,04,27,01,08,9.30
2021,04,27,01,09,9.30
2021,04,27,01,10,9.40
2021,04,27,01,11,9.40
2021,04,27,01,12,9.40
2021,04,27,01,13,9.40
2021,04,27,01,14,9.40
2021,04,27,01,15,9.40
2021,04,27,01,16,9.40
2021,04,27,01,17,9.30
2021,04,27,01,18,9.40
2021,04,27,01,19,9.40
2021,04,27,01,20,9.40
2021,04,27,01,21,9.40
2021,04,27,01,22,9.40
2021,04,27,01,23,9.40
2021,04,27,01,24,9.50
2021,04,27,01,25,9.50
2021,04,27,01,26,9.40
2021,04,27,01,27,9.40
2021,04,27,01,28,9.40
2021,04,27,01,29,9.40
2021,04,27,01,30,9.40
2021,04,27,01,31,9.40
2021,04,27,01,32,9.30
2021,04,27,01,33,9.30
2021,04,27,01,34,9.30
2021,04,27,01,35,9.30
2021,04,27,01,36,9.20
2021,04,27,01,37,9.20
2021,04,27,01,38,9.20
2021,04,27,01,39,9.30
2021,04,27,01,40,9.30
2021,04,27,01,41,9.30
2021,04,27,01,42,9.30
2021,04,27,01,43,9.40
2021,04,27,01,44,9.40
2021,04,27,01,45,9.40
2021,04,27,01,46,9.30
2021,04,27,01,47,9.30
2021,04,27,01,48,9.30
2021,04,27,01,49,9.30
2021,04,27,01,50,9.30
2021,04,27,01,51,9.30
2021,04,27,01,52,9.30
2021,04,27,01,53,9.30
2021,04,27,01,54,9.40
2021,04,27,01,55,9.40
2021,04,27,01,56,9.40
2021,04,27,01,57,9.40
2021,04,27,01,58,9.30
2021,04,27,01,59,9.30
2021,04,27,02,00,9.30
2021,04,27,02,01,9.30
2021,04,27,02,02,9.30
2021,04,27,02,03,9.30
2021,04,27,02,04,9.30
2021,04,27,02,05,9.20
2021,04,27,02,06,9.20
2021,04,27,02,07,9.20
2021,04,27,02,08,9.20
2021,04,27,02,09,9.20
2021,04,27,02,10,9.20
2021,04,27,02,11,9.20
2021,04,27,02,12,9.10
2021,04,27,02,13,9.10
2021,04,27,02,14,9.10
2021,04,27,02,15,9.10
2021,04,27,02,16,9.10
2021,04,27,02,17,9.10
2021,04,27,02,18,9.10
2021,04,27,02,19,9.10
2021,04,27,02,20,9.00
2021,04,27,02,21,9.00
2021,04,27,02,22,9.10
2021,04,27,02,23,9.10
2021,04,27,02,24,9.10
2021,04,27,02,25,9.10
2021,04,27,02,26,9.00
2021,04,27,02,27,9.00
2021,04,27,02,28,9.00
2021,04,27,02,29,9.00
2021,04,27,02,30,8.90
2021,04,27,02,31,8.90
2021,04,27,02,32,8.90
2021,04,27,02,33,8.90
2021,04,27,02,34,8.80
2021,04,27,02,35,8.80
2021,04,27,02,36,8.80
2021,04,27,02,37,8.70
2021,04,27,02,38,8.70
2021,04,27,02,39,8.70
2021,04,27,02,40,8.70
2021,04,27,02,41,8.70
2021,04,27,02,42,8.70
2021,04,27,02,43,8.70
2021,04,27,02,44,8.60
2021,04,27,02,45,8.60
2021,04,27,02,46,8.60
2021,04,27,02,47,8.50
2021,04,27,02,48,8.50
2021,04,27,02,49,8.40
2021,04,27,02,50,8.40
2021,04,27,02,51,8.30
2021,04,27,02,52,8.30
2021,04,27,02,53,8.30
2021,04,27,02,54,8.20
2021,04,27,02,55,8.20
2021,04,27,02,56,8.20
2021,04,27,02,57,8.20
2021,04,27,02,58,8.20
2021,04,27,02,59,8.10
2021,04,27,03,00,8.10
2021,04,27,03,01,8.10
2021,04,27,03,02,8.10
2021,04,27,03,03,8.00
2021,04,27,03,04,8.00
2021,04,27,03,05,8.00
2021,04,27,03,06,8.00
2021,04,27,03,07,7.90
2021,04,27,03,08,7.90
2021,04,27,03,09,7.90
2021,04,27,03,10,7.90
2021,04,27,03,11,7.90
2021,04,27,03,12,7.90
2021,04,27,03,13,7.90
2021,04,27,03,14,7.90
2021,04,27,03,15,7.90
2021,04,27,03,16,7.80
2021,04,27,03,17,7.80
2021,04,27,03,18,7.80
2021,04,27,03,19,7.80
2021,04,27,03,20,7.80
2021,04,27,03,21,7.80
2021,04,27,03,22,7.80
2021,04,27,03,23,7.80
2021,04,27,03,24,7.80
2021,04,27,03,25,7.80
2021,04,27,03,26,7.80
2021,04,27,03,27,7.70
2021,04,27,03,28,7.70
2021,04,27,03,29,7.70
2021,04,27,03,30,7.70
2021,04,27,03,31,7.70
2021,04,27,03,32,7.70
2021,04,27,03,33,7.60
2021,04,27,03,34,7.60
2021,04,27,03,35,7.60
2021,04,27,03,36,7.60
2021,04,27,03,37,7.60
2021,04,27,03,38,7.60
2021,04,27,03,39,7.60
2021,04,27,03,40,7.60
2021,04,27,03,41,7.60
2021,04,27,03,42,7.70
2021,04,27,03,43,7.70
2021,04,27,03,44,7.70
2021,04,27,03,45,7.70
2021,04,27,03,46,7.70
2021,04,27,03,47,7.80
2021,04,27,03,48,7.80
2021,04,27,03,49,7.80
2021,04,27,03,50,7.80
2021,04,27,03,51,7.70
2021,04,27,03,52,7.70
2021,04,27,03,53,7.60
2021,04,27,03,54,7.60
2021,04,27,03,55,7.50
2021,04,27,03,56,7.50
2021,04,27,03,57,7.40
2021,04,27,03,58,7.30
2021,04,27,03,59,7.30
2021,04,27,04,00,7.10
2021,04,27,04,01,7.00
2021,04,27,04,02,7.00
2021,04,27,04,03,6.90
2021,04,27,04,04,6.80
2021,04,27,04,05,6.80
2021,04,27,04,06,6.80
2021,04,27,04,07,6.70
2021,04,27,04,08,6.70
2021,04,27,04,09,6.60
2021,04,27,04,10,6.60
2021,04,27,04,11,6.50
2021,04,27,04,12,6.40
2021,04,27,04,13,6.40
2021,04,27,04,14,6.40
2021,04,27,04,15,6.40
2021,04,27,04,16,6.30
2021,04,27,04,17,6.30
2021,04,27,04,18,6.20
2021,04,27,04,19,6.20
2021,04,27,04,20,6.20
2021,04,27,04,21,6.10
2021,04,27,04,22,6.10
2021,04,27,04,23,6.10
2021,04,27,04,24,6.00
2021,04,27,04,25,6.00
2021,04,27,04,26,6.00
2021,04,27,04,27,5.90
2021,04,27,04,28,5.90
2021,04,27,04,29,5.90
2021,04,27,04,30,5.90
2021,04,27,04,31,5.90
2021,04,27,04,32,5.80
2021,04,27,04,33,5.80
2021,04,27,04,34,5.80
2021,04,27,04,35,5.70
2021,04,27,04,36,5.70
2021,04,27,04,37,5.70
2021,04,27,04,38,5.70
2021,04,27,04,39,5.70
2021,04,27,04,40,5.70
2021,04,27,04,41,5.60
2021,04,27,04,42,5.60
2021,04,27,04,43,5.60
2021,04,27,04,44,5.60
2021,04,27,04,45,5.50
2021,04,27,04,46,5.50
2021,04,27,04,47,5.50
2021,04,27,04,48,5.50
2021,04,27,04,49,5.50
2021,04,27,04,50,5.50
2021,04,27,04,51,5.50
2021,04,27,04,52,5.50
2021,04,27,04,53,5.50
2021,04,27,04,54,5.40
2021,04,27,04,55,5.40
2021,04,27,04,56,5.40
2021,04,27,04,57,5.50
2021,04,27,04,58,5.50
2021,04,27,04,59,5.50
2021,04,27,05,00,5.50
2021,04,27,05,01,5.50
2021,04,27,05,02,5.60
2021,04,27,05,03,5.60
2021,04,27,05,04,5.70
2021,04,27,05,05,5.70
2021,04,27,05,06,5.70
2021,04,27,05,07,5.80
2021,04,27,05,08,5.80
2021,04,27,05,09,5.90
2021,04,27,05,10,5.90
2021,04,27,05,11,5.90
2021,04,27,05,12,6.00
2021,04,27,05,13,6.00
2021,04,27,05,14,6.10
2021,04,27,05,15,6.20
2021,04,27,05,16,6.30
2021,04,27,05,17,6.40
2021,04,27,05,18,6.40
2021,04,27,05,19,6.40
2021,04,27,05,20,6.40
2021,04,27,05,21,6.40
2021,04,27,05,22,6.40
2021,04,27,05,23,6.40
2021,04,27,05,24,6.40
2021,04,27,05,25,6.30
2021,04,27,05,26,6.20
2021,04,27,05,27,6.20
2021,04,27,05,28,6.20
2021,04,27,05,29,6.30
2021,04,27,05,30,6.40
2021,04,27,05,31,6.30
2021,04,27,05,32,6.30
2021,04,27,05,33,6.30
2021,04,27,05,34,6.30
2021,04,27,05,35,6.30
2021,04,27,05,36,6.30
2021,04,27,05,37,6.30
2021,04,27,05,38,6.30
2021,04,27,05,39,6.30
2021,04,27,05,40,6.30
2021,04,27,05,41,6.30
2021,04,27,05,42,6.30
2021,04,27,05,43,6.30
2021,04,27,05,44,6.20
2021,04,27,05,45,6.20
2021,04,27,05,46,6.20
2021,04,27,05,47,6.10
2021,04,27,05,48,6.10
2021,04,27,05,49,6.10
2021,04,27,05,50,6.00
2021,04,27,05,51,6.00
2021,04,27,05,52,6.00
2021,04,27,05,53,6.00
2021,04,27,05,54,6.00
2021,04,27,05,55,6.00
2021,04,27,05,56,6.00
2021,04,27,05,57,6.00
2021,04,27,05,58,6.00
2021,04,27,05,59,6.00
2021,04,27,06,00,6.00
2021,04,27,06,01,6.00
2021,04,27,06,02,6.00
2021,04,27,06,03,6.00
2021,04,27,06,04,6.00
2021,04,27,06,05,6.00
2021,04,27,06,06,6.00
2021,04,27,06,07,6.00
2021,04,27,06,08,6.00
2021,04,27,06,09,6.00
2021,04,27,06,10,6.00
2021,04,27,06,11,6.00
2021,04,27,06,12,6.10
2021,04,27,06,13,6.20
2021,04,27,06,14,6.20
2021,04,27,06,15,6.20
2021,04,27,06,16,6.20
2021,04,27,06,17,6.20
2021,04,27,06,18,6.20
2021,04,27,06,19,6.20
2021,04,27,06,20,6.20
2021,04,27,06,21,6.20
2021,04,27,06,22,6.20
2021,04,27,06,23,6.20
2021,04,27,06,24,6.20
2021,04,27,06,25,6.10
2021,04,27,06,26,6.10
2021,04,27,06,27,6.10
2021,04,27,06,28,6.10
2021,04,27,06,29,6.00
2021,04,27,06,30,6.00
2021,04,27,06,31,6.00
2021,04,27,06,32,6.00
2021,04,27,06,33,6.00
2021,04,27,06,34,6.00
2021,04,27,06,35,5.90
2021,04,27,06,36,6.00
2021,04,27,06,37,6.00
2021,04,27,06,38,6.00
2021,04,27,06,39,6.10
2021,04,27,06,40,6.10
2021,04,27,06,41,6.20
2021,04,27,06,42,6.20
2021,04,27,06,43,6.20
2021,04,27,06,44,6.20
2021,04,27,06,45,6.30
2021,04,27,06,46,6.40
2021,04,27,06,47,6.60
2021,04,27,06,48,6.60
2021,04,27,06,49,6.80
2021,04,27,06,50,6.80
2021,04,27,06,51,7.00
2021,04,27,06,52,7.10
2021,04,27,06,53,7.30
2021,04,27,06,54,7.40
2021,04,27,06,55,7.50
2021,04,27,06,56,7.50
2021,04,27,06,57,7.60
2021,04,27,06,58,7.70
2021,04,27,06,59,7.70
2021,04,27,07,00,7.80
2021,04,27,07,01,7.80
2021,04,27,07,02,7.80
2021,04,27,07,03,7.80
2021,04,27,07,04,7.90
2021,04,27,07,05,7.90
2021,04,27,07,06,7.90
2021,04,27,07,07,7.90
2021,04,27,07,08,7.90
2021,04,27,07,09,7.90
2021,04,27,07,10,8.00
2021,04,27,07,11,8.00
2021,04,27,07,12,8.00
2021,04,27,07,13,8.00
2021,04,27,07,14,8.00
2021,04,27,07,15,8.10
2021,04,27,07,16,8.10
2021,04,27,07,17,8.10
2021,04,27,07,18,8.10
2021,04,27,07,19,8.10
2021,04,27,07,20,8.10
2021,04,27,07,21,8.10
2021,04,27,07,22,8.20
2021,04,27,07,23,8.20
2021,04,27,07,24,8.20
2021,04,27,07,25,8.20
2021,04,27,07,26,8.20
2021,04,27,07,27,8.20
2021,04,27,07,28,8.20
2021,04,27,07,29,8.20
2021,04,27,07,30,8.30
2021,04,27,07,31,8.30
2021,04,27,07,32,8.30
2021,04,27,07,33,8.30
2021,04,27,07,34,8.30
2021,04,27,07,35,8.30
2021,04,27,07,36,8.40
2021,04,27,07,37,8.40
2021,04,27,07,38,8.40
2021,04,27,07,39,8.50
2021,04,27,07,40,8.50
2021,04,27,07,41,8.50
2021,04,27,07,42,8.50
2021,04,27,07,43,8.60
2021,04,27,07,44,8.60
2021,04,27,07,45,8.60
2021,04,27,07,46,8.60
2021,04,27,07,47,8.70
2021,04,27,07,48,8.70
2021,04,27,07,49,8.70
2021,04,27,07,50,8.70
2021,04,27,07,51,8.70
2021,04,27,07,52,8.80
2021,04,27,07,53,8.80
2021,04,27,07,54,8.80
2021,04,27,07,55,8.80
2021,04,27,07,56,8.80
2021,04,27,07,57,8.90
2021,04,27,07,58,8.90
2021,04,27,07,59,8.90
2021,04,27,08,00,9.00
2021,04,27,08,01,9.00
2021,04,27,08,02,9.00
2021,04,27,08,03,9.10
2021,04,27,08,04,9.10
2021,04,27,08,05,9.10
2021,04,27,08,06,9.10
2021,04,27,08,07,9.10
2021,04,27,08,08,9.10
2021,04,27,08,09,9.10
2021,04,27,08,10,9.20
2021,04,27,08,11,9.20
2021,04,27,08,12,9.20
2021,04,27,08,13,9.20
2021,04,27,08,14,9.20
2021,04,27,08,15,9.20
2021,04,27,08,16,9.30
2021,04,27,08,17,9.30
2021,04,27,08,18,9.40
2021,04,27,08,19,9.40
2021,04,27,08,20,9.50
2021,04,27,08,21,9.50
2021,04,27,08,22,9.60
2021,04,27,08,23,9.70
2021,04,27,08,24,9.70
2021,04,27,08,25,9.80
2021,04,27,08,26,9.90
2021,04,27,08,27,9.90
2021,04,27,08,28,9.90
2021,04,27,08,29,9.80
2021,04,27,08,30,9.80
2021,04,27,08,31,9.90
2021,04,27,08,32,10.00
2021,04,27,08,33,10.10
2021,04,27,08,34,10.10
2021,04,27,08,35,10.10
2021,04,27,08,36,10.10
2021,04,27,08,37,10.20
2021,04,27,08,38,10.30
2021,04,27,08,39,10.40
2021,04,27,08,40,10.40
2021,04,27,08,41,10.40
2021,04,27,08,42,10.40
2021,04,27,08,43,10.40
2021,04,27,08,44,10.40
2021,04,27,08,45,10.40
2021,04,27,08,46,10.50
2021,04,27,08,47,10.60
2021,04,27,08,48,10.70
2021,04,27,08,49,10.80
2021,04,27,08,50,10.90
2021,04,27,08,51,11.00
2021,04,27,08,52,11.10
2021,04,27,08,53,11.00
2021,04,27,08,54,11.00
2021,04,27,08,55,11.10
2021,04,27,08,56,11.00
2021,04,27,08,57,10.90
2021,04,27,08,58,10.90
2021,04,27,08,59,10.90
2021,04,27,09,00,10.90
2021,04,27,09,01,10.90
2021,04,27,09,02,11.00
2021,04,27,09,03,11.10
2021,04,27,09,04,11.10
2021,04,27,09,05,11.10
2021,04,27,09,06,11.20
2021,04,27,09,07,11.20
2021,04,27,09,08,11.20
2021,04,27,09,09,11.30
2021,04,27,09,10,11.30
2021,04,27,09,11,11.40
2021,04,27,09,12,11.40
2021,04,27,09,13,11.40
2021,04,27,09,14,11.40
2021,04,27,09,15,11.30
2021,04,27,09,16,11.30
2021,04,27,09,17,11.30
2021,04,27,09,18,11.20
2021,04,27,09,19,11.20
2021,04,27,09,20,11.10
2021,04,27,09,21,11.10
2021,04,27,09,22,11.10
2021,04,27,09,23,11.10
2021,04,27,09,24,11.00
2021,04,27,09,25,10.90
2021,04,27,09,26,11.00
2021,04,27,09,27,11.10
2021,04,27,09,28,11.10
2021,04,27,09,29,11.00
2021,04,27,09,30,11.10
2021,04,27,09,31,11.10
2021,04,27,09,32,11.00
2021,04,27,09,33,10.90
2021,04,27,09,34,10.90
2021,04,27,09,35,10.90
2021,04,27,09,36,10.90
2021,04,27,09,37,10.90
2021,04,27,09,38,10.90
2021,04,27,09,39,10.90
2021,04,27,09,40,10.90
2021,04,27,09,41,10.90
2021,04,27,09,42,11.10
2021,04,27,09,43,11.10
2021,04,27,09,44,11.10
2021,04,27,09,45,11.10
2021,04,27,09,46,11.10
2021,04,27,09,47,11.10
2021,04,27,09,48,11.20
2021,04,27,09,49,11.30
2021,04,27,09,50,11.20
2021,04,27,09,51,11.20
2021,04,27,09,52,11.30
2021,04,27,09,53,11.50
2021,04,27,09,54,11.60
2021,04,27,09,55,11.60
2021,04,27,09,56,11.50
2021,04,27,09,57,11.40
2021,04,27,09,58,11.40
2021,04,27,09,59,11.30
2021,04,27,10,00,11.30
2021,04,27,10,01,11.20
2021,04,27,10,02,11.20
2021,04,27,10,03,11.20
2021,04,27,10,04,11.30
2021,04,27,10,05,11.20
2021,04,27,10,06,11.20
2021,04,27,10,07,11.20
2021,04,27,10,08,11.10
2021,04,27,10,09,11.10
2021,04,27,10,10,11.10
2021,04,27,10,11,11.10
2021,04,27,10,12,11.10
2021,04,27,10,13,11.20
2021,04,27,10,14,11.20
2021,04,27,10,15,11.20
2021,04,27,10,16,11.30
2021,04,27,10,17,11.30
2021,04,27,10,18,11.30
2021,04,27,10,19,11.30
2021,04,27,10,20,11.30
2021,04,27,10,21,11.40
2021,04,27,10,22,11.40
2021,04,27,10,23,11.50
2021,04,27,10,24,11.60
2021,04,27,10,25,11.60
2021,04,27,10,26,11.60
2021,04,27,10,27,11.60
2021,04,27,10,28,11.70
2021,04,27,10,29,11.80
2021,04,27,10,30,11.80
2021,04,27,10,31,11.80
2021,04,27,10,32,11.90
2021,04,27,10,33,11.90
2021,04,27,10,34,12.00
2021,04,27,10,35,12.00
2021,04,27,10,36,12.00
2021,04,27,10,37,11.90
2021,04,27,10,38,11.80
2021,04,27,10,39,11.70
2021,04,27,10,40,11.70
2021,04,27,10,41,11.70
2021,04,27,10,42,11.60
2021,04,27,10,43,11.50
2021,04,27,10,44,11.40
2021,04,27,10,45,11.40
2021,04,27,10,46,11.40
2021,04,27,10,47,11.40
2021,04,27,10,48,11.40
2021,04,27,10,49,11.40
2021,04,27,10,50,11.30
2021,04,27,10,51,11.40
2021,04,27,10,52,11.40
2021,04,27,10,53,11.30
2021,04,27,10,54,11.30
2021,04,27,10,55,11.30
2021,04,27,10,56,11.30
2021,04,27,10,57,11.40
2021,04,27,10,58,11.50
2021,04,27,10,59,11.60
2021,04,27,11,00,11.70
2021,04,27,11,01,11.70
2021,04,27,11,02,11.60
2021,04,27,11,03,11.60
2021,04,27,11,04,11.60
2021,04,27,11,05,11.50
2021,04,27,11,06,11.40
2021,04,27,11,07,11.30
2021,04,27,11,08,11.20
2021,04,27,11,09,11.20
2021,04,27,11,10,11.20
2021,04,27,11,11,11.30
2021,04,27,11,12,11.40
2021,04,27,11,13,11.50
2021,04,27,11,14,11.50
2021,04,27,11,15,11.40
2021,04,27,11,16,11.40
2021,04,27,11,17,11.40
2021,04,27,11,18,11.40
2021,04,27,11,19,11.40
2021,04,27,11,20,11.60
2021,04,27,11,21,11.60
2021,04,27,11,22,11.60
2021,04,27,11,23,11.50
2021,04,27,11,24,11.40
2021,04,27,11,25,11.40
2021,04,27,11,26,11.50
2021,04,27,11,27,11.40
2021,04,27,11,28,11.40
2021,04,27,11,29,11.40
2021,04,27,11,30,11.50
2021,04,27,11,31,11.70
2021,04,27,11,32,11.80
2021,04,27,11,33,11.80
2021,04,27,11,34,11.70
2021,04,27,11,35,11.70
2021,04,27,11,36,11.70
2021,04,27,11,37,11.70
2021,04,27,11,38,11.80
2021,04,27,11,39,11.80
2021,04,27,11,40,11.80
2021,04,27,11,41,11.90
2021,04,27,11,42,12.00
2021,04,27,11,43,12.10
2021,04,27,11,44,12.10
2021,04,27,11,45,12.20
2021,04,27,11,46,12.20
2021,04,27,11,47,12.10
2021,04,27,11,48,12.10
2021,04,27,11,49,12.20
2021,04,27,11,50,12.20
2021,04,27,11,51,12.20
2021,04,27,11,52,12.20
2021,04,27,11,53,12.20
2021,04,27,11,54,12.10
2021,04,27,11,55,12.00
2021,04,27,11,56,12.00
2021,04,27,11,57,12.00
2021,04,27,11,58,12.10
2021,04,27,11,59,12.20
2021,04,27,12,00,12.30
2021,04,27,12,01,12.40
2021,04,27,12,02,12.50
2021,04,27,12,03,12.50
2021,04,27,12,04,12.60
2021,04,27,12,05,12.50
2021,04,27,12,06,12.50
2021,04,27,12,07,12.60
2021,04,27,12,08,12.70
2021,04,27,12,09,12.60
2021,04,27,12,10,12.60
2021,04,27,12,11,12.60
2021,04,27,12,12,12.60
2021,04,27,12,13,12.60
2021,04,27,12,14,12.50
2021,04,27,12,15,12.50
2021,04,27,12,16,12.50
2021,04,27,12,17,12.40
2021,04,27,12,18,12.30
2021,04,27,12,19,12.40
2021,04,27,12,20,12.50
2021,04,27,12,21,12.60
2021,04,27,12,22,12.60
2021,04,27,12,23,12.70
2021,04,27,12,24,12.80
2021,04,27,12,25,12.90
2021,04,27,12,26,12.80
2021,04,27,12,27,12.70
2021,04,27,12,28,12.60
2021,04,27,12,29,12.60
2021,04,27,12,30,12.50
2021,04,27,12,31,12.50
2021,04,27,12,32,12.50
2021,04,27,12,33,12.50
2021,04,27,12,34,12.50
2021,04,27,12,35,12.50
2021,04,27,12,36,12.50
2021,04,27,12,37,12.60
2021,04,27,12,38,12.60
2021,04,27,12,39,12.70
2021,04,27,12,40,12.80
2021,04,27,12,41,12.80
2021,04,27,12,42,12.80
2021,04,27,12,43,12.70
2021,04,27,12,44,12.70
2021,04,27,12,45,12.70
2021,04,27,12,46,12.80
2021,04,27,12,47,12.80
2021,04,27,12,48,12.70
2021,04,27,12,49,12.60
2021,04,27,12,50,12.60
2021,04,27,12,51,12.60
2021,04,27,12,52,12.70
2021,04,27,12,53,12.60
2021,04,27,12,54,12.50
2021,04,27,12,55,12.50
2021,04,27,12,56,12.50
2021,04,27,12,57,12.50
2021,04,27,12,58,12.50
2021,04,27,12,59,12.60
2021,04,27,13,00,12.60
2021,04,27,13,01,12.70
2021,04,27,13,02,12.80
2021,04,27,13,03,12.80
2021,04,27,13,04,12.80
2021,04,27,13,05,12.70
2021,04,27,13,06,12.60
2021,04,27,13,07,12.50
2021,04,27,13,08,12.50
2021,04,27,13,09,12.50
2021,04,27,13,10,12.50
2021,04,27,13,11,12.50
2021,04,27,13,12,12.50
2021,04,27,13,13,12.50
2021,04,27,13,14,12.50
2021,04,27,13,15,12.50
2021,04,27,13,16,12.60
2021,04,27,13,17,12.60
2021,04,27,13,18,12.70
2021,04,27,13,19,12.80
2021,04,27,13,20,12.90
2021,04,27,13,21,13.00
2021,04,27,13,22,13.20
2021,04,27,13,23,13.30
2021,04,27,13,24,13.30
2021,04,27,13,25,13.30
2021,04,27,13,26,13.40
2021,04,27,13,27,13.40
2021,04,27,13,28,13.50
2021,04,27,13,29,13.60
2021,04,27,13,30,13.60
2021,04,27,13,31,13.70
2021,04,27,13,32,13.80
2021,04,27,13,33,13.90
2021,04,27,13,34,13.90
2021,04,27,13,35,14.10
2021,04,27,13,36,14.20
2021,04,27,13,37,14.20
2021,04,27,13,38,14.20
2021,04,27,13,39,14.30
2021,04,27,13,40,14.40
2021,04,27,13,41,14.50
2021,04,27,13,42,14.40
2021,04,27,13,43,14.40
2021,04,27,13,44,14.40
2021,04,27,13,45,14.40
2021,04,27,13,46,14.30
2021,04,27,13,47,14.20
2021,04,27,13,48,14.20
2021,04,27,13,49,14.20
2021,04,27,13,50,14.30
2021,04,27,13,51,14.40
2021,04,27,13,52,14.30
2021,04,27,13,53,14.20
2021,04,27,13,54,14.20
2021,04,27,13,55,14.20
2021,04,27,13,56,14.20
2021,04,27,13,57,14.20
2021,04,27,13,58,14.20
2021,04,27,13,59,14.20
2021,04,27,14,00,14.20
2021,04,27,14,01,14.20
2021,04,27,14,02,14.40
2021,04,27,14,03,14.50
2021,04,27,14,04,14.50
2021,04,27,14,05,14.50
2021,04,27,14,06,14.40
2021,04,27,14,07,14.20
2021,04,27,14,08,14.20
2021,04,27,14,09,14.10
2021,04,27,14,10,14.10
2021,04,27,14,11,14.00
2021,04,27,14,12,14.00
2021,04,27,14,13,13.90
2021,04,27,14,14,13.80
2021,04,27,14,15,13.80
2021,04,27,14,16,13.80
2021,04,27,14,17,13.90
2021,04,27,14,18,13.90
2021,04,27,14,19,13.90
2021,04,27,14,20,14.10
2021,04,27,14,21,14.20
2021,04,27,14,22,14.20
2021,04,27,14,23,14.20
2021,04,27,14,24,14.20
2021,04,27,14,25,14.20
2021,04,27,14,26,14.20
2021,04,27,14,27,14.20
2021,04,27,14,28,14.20
2021,04,27,14,29,14.20
2021,04,27,14,30,14.20
2021,04,27,14,31,14.20
2021,04,27,14,32,14.20
2021,04,27,14,33,14.20
2021,04,27,14,34,14.20
2021,04,27,14,35,14.20
2021,04,27,14,36,14.20
2021,04,27,14,37,14.20
2021,04,27,14,38,14.20
2021,04,27,14,39,14.30
2021,04,27,14,40,14.40
2021,04,27,14,41,14.50
2021,04,27,14,42,14.40
2021,04,27,14,43,14.40
2021,04,27,14,44,14.40
2021,04,27,14,45,14.40
2021,04,27,14,46,14.40
2021,04,27,14,47,14.40
2021,04,27,14,48,14.30
2021,04,27,14,49,14.20
2021,04,27,14,50,14.10
2021,04,27,14,51,14.00
2021,04,27,14,52,14.00
2021,04,27,14,53,14.00
2021,04,27,14,54,14.00
2021,04,27,14,55,14.10
2021,04,27,14,56,14.10
2021,04,27,14,57,14.00
2021,04,27,14,58,13.90
2021,04,27,14,59,13.90
2021,04,27,15,00,14.00
2021,04,27,15,01,14.00
2021,04,27,15,02,14.00
2021,04,27,15,03,14.00
2021,04,27,15,04,13.90
2021,04,27,15,05,13.90
2021,04,27,15,06,13.90
2021,04,27,15,07,13.90
2021,04,27,15,08,14.00
2021,04,27,15,09,14.00
2021,04,27,15,10,14.00
2021,04,27,15,11,14.00
2021,04,27,15,12,14.00
2021,04,27,15,13,13.90
2021,04,27,15,14,13.90
2021,04,27,15,15,14.00
2021,04,27,15,16,13.90
2021,04,27,15,17,13.90
2021,04,27,15,18,13.90
2021,04,27,15,19,13.90
2021,04,27,15,20,13.90
2021,04,27,15,21,13.90
2021,04,27,15,22,13.90
2021,04,27,15,23,13.90
2021,04,27,15,24,14.00
2021,04,27,15,25,14.00
2021,04,27,15,26,14.10
2021,04,27,15,27,14.00
2021,04,27,15,28,13.90
2021,04,27,15,29,13.80
2021,04,27,15,30,13.70
2021,04,27,15,31,13.70
2021,04,27,15,32,13.80
2021,04,27,15,33,13.80
2021,04,27,15,34,13.80
2021,04,27,15,35,13.70
2021,04,27,15,36,13.70
2021,04,27,15,37,13.70
2021,04,27,15,38,13.60
2021,04,27,15,39,13.60
2021,04,27,15,40,13.50
2021,04,27,15,41,13.50
2021,04,27,15,42,13.50
2021,04,27,15,43,13.40
2021,04,27,15,44,13.30
2021,04,27,15,45,13.30
2021,04,27,15,46,13.20
2021,04,27,15,47,13.20
2021,04,27,15,48,13.20
2021,04,27,15,49,13.20
2021,04,27,15,50,13.10
2021,04,27,15,51,13.00
2021,04,27,15,52,12.90
2021,04,27,15,53,12.80
2021,04,27,15,54,12.80
2021,04,27,15,55,12.80
2021,04,27,15,56,12.80
2021,04,27,15,57,12.80
2021,04,27,15,58,12.80
2021,04,27,15,59,12.80
2021,04,27,16,00,12.80
2021,04,27,16,01,12.80
2021,04,27,16,02,12.80
2021,04,27,16,03,12.70
2021,04,27,16,04,12.60
2021,04,27,16,05,12.50
2021,04,27,16,06,12.60
2021,04,27,16,07,12.60
2021,04,27,16,08,12.60
2021,04,27,16,09,12.60
2021,04,27,16,10,12.60
2021,04,27,16,11,12.60
2021,04,27,16,12,12.60
2021,04,27,16,13,12.70
2021,04,27,16,14,12.70
2021,04,27,16,15,12.60
2021,04,27,16,16,12.70
2021,04,27,16,17,12.70
2021,04,27,16,18,12.70
2021,04,27,16,19,12.70
2021,04,27,16,20,12.70
2021,04,27,16,21,12.70
2021,04,27,16,22,12.70
2021,04,27,16,23,12.60
2021,04,27,16,24,12.60
2021,04,27,16,25,12.60
2021,04,27,16,26,12.60
2021,04,27,16,27,12.60
2021,04,27,16,28,12.60
2021,04,27,16,29,12.60
2021,04,27,16,30,12.50
2021,04,27,16,31,12.50
2021,04,27,16,32,12.40
2021,04,27,16,33,12.30
2021,04,27,16,34,12.30
2021,04,27,16,35,12.30
2021,04,27,16,36,12.40
2021,04,27,16,37,12.40
2021,04,27,16,38,12.40
2021,04,27,16,39,12.40
2021,04,27,16,40,12.50
2021,04,27,16,41,12.60
2021,04,27,16,42,12.60
2021,04,27,16,43,12.50
2021,04,27,16,44,12.50
2021,04,27,16,45,12.50
2021,04,27,16,46,12.50
2021,04,27,16,47,12.40
2021,04,27,16,48,12.40
2021,04,27,16,49,12.50
2021,04,27,16,50,12.50
2021,04,27,16,51,12.60
2021,04,27,16,52,12.60
2021,04,27,16,53,12.60
2021,04,27,16,54,12.50
2021,04,27,16,55,12.50
2021,04,27,16,56,12.50
2021,04,27,16,57,12.40
2021,04,27,16,58,12.40
2021,04,27,16,59,12.40
2021,04,27,17,00,12.50
2021,04,27,17,01,12.50
2021,04,27,17,02,12.60
2021,04,27,17,03,12.60
2021,04,27,17,04,12.60
2021,04,27,17,05,12.70
2021,04,27,17,06,12.70
2021,04,27,17,07,12.70
2021,04,27,17,08,12.70
2021,04,27,17,09,12.70
2021,04,27,17,10,12.70
2021,04,27,17,11,12.70
2021,04,27,17,12,12.80
2021,04,27,17,13,12.80
2021,04,27,17,14,12.80
2021,04,27,17,15,12.80
2021,04,27,17,16,12.80
2021,04,27,17,17,12.80
2021,04,27,17,18,12.80
2021,04,27,17,19,12.80
2021,04,27,17,20,12.80
2021,04,27,17,21,12.90
2021,04,27,17,22,12.90
2021,04,27,17,23,12.80
2021,04,27,17,24,12.90
2021,04,27,17,25,12.80
2021,04,27,17,26,12.90
2021,04,27,17,27,12.90
2021,04,27,17,28,12.90
2021,04,27,17,29,13.00
2021,04,27,17,30,13.00
2021,04,27,17,31,13.00
2021,04,27,17,32,12.90
2021,04,27,17,33,13.00
2021,04,27,17,34,13.00
2021,04,27,17,35,13.10
2021,04,27,17,36,13.10
2021,04,27,17,37,13.10
2021,04,27,17,38,13.10
2021,04,27,17,39,13.10
2021,04,27,17,40,13.10
2021,04,27,17,41,13.10